Location: Izdebno
(52.6670°N, 16.2170°E)
Time: 04:49:48
(UTC+01:00)

Altair - Visible Passes

Search period start: 30 January 2023 00:00
Search period end: 09 February 2023 00:00
Orbit: 1501 x 1683 km, 47.2° (Epoch: 29 January)

Date Brightness Start Highest point End Pass type
(mag) Time Alt. Az. Time Alt. Az. Time Alt. Az.
30 Jan 8.3 19:27:31 10° SSW 19:34:55 30° SE 19:34:55 30° SE visible
30 Jan 8.8 21:29:20 10° SW 21:32:59 26° SW 21:32:59 26° SW visible
31 Jan 8.3 19:02:42 10° S 19:10:26 28° SE 19:11:33 27° SE visible
31 Jan 8.4 21:04:15 10° SW 21:09:36 36° SW 21:09:36 36° SW visible
01 Feb 8.5 18:37:55 10° S 18:45:23 26° SE 18:48:08 23° ESE visible
01 Feb 8.0 20:39:11 10° SW 20:46:10 45° SSW 20:46:10 45° SSW visible
01 Feb 9.4 22:42:53 10° W 22:44:13 15° W 22:44:13 15° W visible
02 Feb 8.6 18:13:11 10° S 18:20:21 24° SE 18:24:39 18° E visible
02 Feb 7.8 20:14:07 10° SW 20:22:41 50° S 20:22:41 50° S visible
02 Feb 9.0 22:17:43 10° WSW 22:20:44 23° WSW 22:20:44 23° WSW visible
03 Feb 8.7 17:48:29 10° S 17:55:19 22° SE 18:01:07 13° E visible
03 Feb 7.7 19:49:05 10° SW 19:58:16 49° SSE 19:59:09 48° SE visible
03 Feb 8.6 21:52:34 10° WSW 21:57:12 32° WSW 21:57:12 32° WSW visible
04 Feb 8.8 17:23:51 10° S 17:30:17 20° SE 17:36:52 10° E visible
04 Feb 7.9 19:24:03 10° SW 19:33:08 47° SSE 19:35:34 41° ESE visible
04 Feb 8.2 21:27:25 10° WSW 21:33:37 43° WSW 21:33:37 43° WSW visible
05 Feb 7.9 18:59:03 10° SW 19:08:01 45° SSE 19:11:57 32° ESE visible
05 Feb 7.8 21:02:17 10° WSW 21:09:59 55° SW 21:09:59 55° SW visible
05 Feb 9.4 23:06:31 10° W 23:08:01 16° W 23:08:01 16° W visible
06 Feb 8.0 18:34:04 10° SW 18:42:54 43° SSE 18:48:18 24° E visible
06 Feb 7.6 20:37:09 10° WSW 20:46:19 64° S 20:46:19 64° S visible
06 Feb 9.1 22:41:20 10° W 22:44:21 23° W 22:44:21 23° W visible
07 Feb 8.1 18:09:06 10° SSW 18:17:48 41° SSE 18:24:36 18° E visible
07 Feb 7.5 20:12:01 10° WSW 20:21:34 63° S 20:22:38 60° SE visible
07 Feb 8.7 22:16:10 10° W 22:20:39 31° W 22:20:39 31° W visible
08 Feb 8.2 17:44:09 10° SSW 17:52:42 39° SE 18:00:53 12° E visible
08 Feb 7.6 19:46:54 10° WSW 19:56:24 62° S 19:58:55 50° ESE visible
08 Feb 8.3 21:51:00 10° W 21:56:56 40° WSW 21:56:56 40° WSW visible
